This is the latest recevied weather packets stored in our database for station/object MB7UKB-10. If no packets are shown the sender has not sent any weather packets the latest 10 day(s).
| Time | Temp. | Humidity | Pressure | Rain* | Wind** | Luminosity | Snow |
|---|---|---|---|---|---|---|---|
| 1777524144 | 7.78° C | 76% | 1022.6 hPa | 0 mm | - | - | - |
| 1777522344 | 7.78° C | 75% | 1022.6 hPa | 0 mm | - | - | - |
| 1777520544 | 8.33° C | 74% | 1022.6 hPa | 0 mm | - | - | - |
| 1777518745 | 8.33° C | 73% | 1022.6 hPa | 0 mm | - | - | - |
| 1777516944 | 8.33° C | 72% | 1022.6 hPa | 0 mm | - | - | - |
| 1777515144 | 8.89° C | 71% | 1022.5 hPa | 0 mm | - | - | - |
| 1777513344 | 8.89° C | 70% | 1022.5 hPa | 0 mm | - | - | - |
| 1777511544 | 8.89° C | 68% | 1022.9 hPa | 0 mm | - | - | - |
| 1777509744 | 8.89° C | 67% | 1023.1 hPa | 0 mm | - | - | - |
| 1777507944 | 9.44° C | 65% | 1023.4 hPa | 0 mm | - | - | - |
| 1777506144 | 10° C | 63% | 1023.3 hPa | 0 mm | - | - | - |
| 1777504344 | 10° C | 60% | 1023.2 hPa | 0 mm | - | - | - |
| 1777502544 | 10.56° C | 56% | 1023.4 hPa | 0 mm | - | - | - |
| 1777500744 | 10.56° C | 53% | 1023.4 hPa | 0 mm | - | - | - |
| 1777498943 | 11.11° C | 50% | 1023.3 hPa | 0 mm | - | - | - |
| 1777495344 | 12.22° C | 46% | 1023 hPa | 0 mm | - | - | - |
| 1777491744 | 13.33° C | 42% | 1023 hPa | 0 mm | - | - | - |
| 1777488143 | 14.44° C | 38% | 1022.4 hPa | 0 mm | - | - | - |
| 1777486344 | 15° C | 37% | 1021.7 hPa | 0 mm | - | - | - |
| 1777484544 | 15.56° C | 35% | 1021.9 hPa | 0 mm | - | - | - |
| 1777482744 | 16.67° C | 33% | 1021.6 hPa | 0 mm | - | - | - |
| 1777480943 | 17.22° C | 33% | 1021.8 hPa | 0 mm | - | - | - |
| 1777479143 | 17.22° C | 32% | 1021.9 hPa | 0 mm | - | - | - |
| 1777477343 | 18.33° C | 30% | 1022.2 hPa | 0 mm | - | - | - |
| 1777475544 | 18.33° C | 29% | 1022.3 hPa | 0 mm | - | - | - |
* Rain latest hour (hover to see other rain measurements)
** Current wind speed in m/s (hover to see current wind gust speed)